Location: Dötzum
(52.0808°N, 9.8063°E)
Time: 06:25:09
(UTC+00:00)

Lacrosse 5 - Pass Details

Date: 27 May 2022
Orbit: 714 x 724 km, 57.0° (Epoch: 09 March)

Event Time Altitude Azimuth Distance (km) Brightness Sun altitude
Exits shadow 00:07:00 18° 151° (SSE) 1,750 3.4 -15.9°
Maximum altitude 00:08:35 20° 126° (SE) 1,626 3.5 -15.8°
Drops below altitude 10° 00:12:16 10° 80° (E) 2,217 4.7 -15.7°
Sets 00:15:11 0° 64° (ENE) 3,141 5.8 -15.6°
